"Sample Date","Sample Time","Sample Value","Units","Flow Rate","Sample Interval","Number Channels","Micron Size 0","Counts/Channel 0","Micron Size 1","Counts/Channel 1","Micron Size 2","Counts/Channel 2","Micron Size 3","Counts/Channel 3","Micron Size 4","Counts/Channel 4","Micron Size 5","Counts/Channel 5","Micron Size 6","Counts/Channel 6","Micron Size 7","Counts/Channel 7","Micron Size 8","Counts/Channel 8","Micron Size 9","Counts/Channel 9","Micron Size 10","Counts/Channel 10","Micron Size 11","Counts/Channel 11","Micron Size 12","Counts/Channel 12","Micron Size 13","Counts/Channel 13","Micron Size 14","Counts/Channel 14","Micron Size 15","Counts/Channel 15","Micron Size 16","Counts/Channel 16","Micron Size 17","Counts/Channel 17","Micron Size 18","Counts/Channel 18","Micron Size 19","Counts/Channel 19","Micron Size 20","Counts/Channel 20","Micron Size 21","Counts/Channel 21","Micron Size 22","Counts/Channel 22","Micron Size 23","Counts/Channel 23","Micron Size 24","Counts/Channel 24","Micron Size 25","Counts/Channel 25","Micron Size 26","Counts/Channel 26","Micron Size 27","Counts/Channel 27","Micron Size 28","Counts/Channel 28","Micron Size 29","Counts/Channel 29","Micron Size 30","Counts/Channel 30","Micron Size 31","Counts/Channel 31"
"03/09/08","20:00:04",182455.000,"cc",28334.414,6.00,6,0.100,149796.000,0.200,29426.000,0.300,2622.000,0.500,550.000,1.000,61.000,5.000,0
"03/09/08","20:00:10",188121.000,"cc",28312.908,6.00,6,0.100,154845.000,0.200,30156.000,0.300,2522.000,0.500,523.000,1.000,75.000,5.000,0
"03/09/08","20:00:16",153019.000,"cc",28360.967,6.00,6,0.100,125550.000,0.200,24625.000,0.300,2212.000,0.500,575.000,1.000,57.000,5.000,0
"03/09/08","20:00:22",246143.000,"cc",28332.447,6.00,6,0.100,201065.000,0.200,40977.000,0.300,3366.000,0.500,660.000,1.000,75.000,5.000,0
"03/09/08","20:00:28",169043.000,"cc",28316.463,6.00,6,0.100,139047.000,0.200,26779.000,0.300,2539.000,0.500,598.000,1.000,80.000,5.000,0
"03/09/08","20:00:34",193492.000,"cc",28276.922,6.00,6,0.100,158220.000,0.200,31270.000,0.300,3011.000,0.500,849.000,1.000,142.000,5.000,0
"03/09/08","20:00:40",242526.000,"cc",28294.281,6.00,6,0.100,197865.000,0.200,40228.000,0.300,3514.000,0.500,808.000,1.000,111.000,5.000,0
"03/09/08","20:00:46",134111.000,"cc",28325.293,6.00,6,0.100,109259.000,0.200,21633.000,0.300,2353.000,0.500,749.000,1.000,117.000,5.000,0
"03/09/08","20:00:52",208433.000,"cc",28345.731,6.00,6,0.100,170995.000,0.200,33497.000,0.300,3120.000,0.500,710.000,1.000,111.000,5.000,0
"03/09/08","20:00:58",223474.000,"cc",28323.375,6.00,6,0.100,183087.000,0.200,36594.000,0.300,3165.000,0.500,553.000,1.000,75.000,5.000,0
"03/09/08","20:01:04",202076.000,"cc",28284.635,6.00,6,0.100,166277.000,0.200,32404.000,0.300,2753.000,0.500,568.000,1.000,74.000,5.000,0
"03/09/08","20:01:10",212337.000,"cc",28261.488,6.00,6,0.100,173568.000,0.200,35042.000,0.300,3053.000,0.500,606.000,1.000,68.000,5.000,0
"03/09/08","20:01:16",192983.000,"cc",28285.350,6.00,6,0.100,158374.000,0.200,31063.000,0.300,2803.000,0.500,647.000,1.000,96.000,5.000,0
"03/09/08","20:01:22",228030.000,"cc",28322.090,6.00,6,0.100,186410.000,0.200,37765.000,0.300,3177.000,0.500,610.000,1.000,68.000,5.000,0
"03/09/08","20:01:28",181537.000,"cc",28337.518,6.00,6,0.100,149106.000,0.200,28892.000,0.300,2722.000,0.500,732.000,1.000,85.000,5.000,0
"03/09/08","20:01:34",230627.000,"cc",28300.473,6.00,6,0.100,189259.000,0.200,37500.000,0.300,3155.000,0.500,636.000,1.000,77.000,5.000,0
"03/09/08","20:01:40",198207.000,"cc",28326.762,6.00,6,0.100,162678.000,0.200,32007.000,0.300,2768.000,0.500,657.000,1.000,97.000,5.000,0
"03/09/08","20:01:46",223914.000,"cc",28360.453,6.00,6,0.100,182900.000,0.200,37345.000,0.300,2983.000,0.500,606.000,1.000,80.000,5.000,0
"03/09/08","20:01:52",226014.000,"cc",28341.033,6.00,6,0.100,183936.000,0.200,38505.000,0.300,3023.000,0.500,493.000,1.000,57.000,5.000,0
"03/09/08","20:01:58",229462.000,"cc",28293.350,6.00,6,0.100,186091.000,0.200,39257.000,0.300,3337.000,0.500,686.000,1.000,91.000,5.000,0
"03/09/08","20:02:04",260727.000,"cc",28336.959,6.00,6,0.100,214281.000,0.200,42489.000,0.300,3159.000,0.500,703.000,1.000,95.000,5.000,0
"03/09/08","20:02:10",274191.000,"cc",28326.315,6.00,6,0.100,225514.000,0.200,44646.000,0.300,3261.000,0.500,706.000,1.000,64.000,5.000,0
"03/09/08","20:02:16",287364.000,"cc",28250.574,6.00,6,0.100,235978.000,0.200,47095.000,0.300,3474.000,0.500,725.000,1.000,92.000,5.000,0
"03/09/08","20:02:22",183116.000,"cc",28341.959,6.00,6,0.100,151801.000,0.200,28464.000,0.300,2273.000,0.500,521.000,1.000,57.000,5.000,0
"03/09/08","20:02:28",237295.000,"cc",28347.313,6.00,6,0.100,194664.000,0.200,38997.000,0.300,2943.000,0.500,608.000,1.000,83.000,5.000,0
"03/09/08","20:02:34",298609.000,"cc",28375.190,6.00,6,0.100,242048.000,0.200,51832.000,0.300,3981.000,0.500,663.000,1.000,85.000,5.000,0
"03/09/08","20:02:40",284065.000,"cc",28324.438,6.00,6,0.100,232214.000,0.200,47304.000,0.300,3689.000,0.500,737.000,1.000,121.000,5.000,0
"03/09/08","20:02:46",130407.000,"cc",28341.299,6.00,6,0.100,106058.000,0.200,21547.000,0.300,2114.000,0.500,608.000,1.000,80.000,5.000,0
"03/09/08","20:02:52",228272.000,"cc",28221.102,6.00,6,0.100,186377.000,0.200,37884.000,0.300,3171.000,0.500,752.000,1.000,88.000,5.000,0
"03/09/08","20:02:58",283031.000,"cc",28318.943,6.00,6,0.100,227993.000,0.200,50180.000,0.300,3938.000,0.500,797.000,1.000,123.000,5.000,0
"03/09/08","20:03:04",212444.000,"cc",28295.338,6.00,6,0.100,175150.000,0.200,33765.000,0.300,2844.000,0.500,614.000,1.000,71.000,5.000,0
"03/09/08","20:03:10",291891.000,"cc",28301.490,6.00,6,0.100,237895.000,0.200,49642.000,0.300,3774.000,0.500,521.000,1.000,59.000,5.000,0
"03/09/08","20:03:16",185053.000,"cc",28315.807,6.00,6,0.100,152790.000,0.200,29189.000,0.300,2516.000,0.500,510.000,1.000,48.000,5.000,0
"03/09/08","20:03:22",225192.000,"cc",28307.477,6.00,6,0.100,184216.000,0.200,37199.000,0.300,3067.000,0.500,620.000,1.000,90.000,5.000,0
"03/09/08","20:03:28",192439.000,"cc",28306.211,6.00,6,0.100,158361.000,0.200,30601.000,0.300,2797.000,0.500,613.000,1.000,67.000,5.000,0
"03/09/08","20:03:34",226856.000,"cc",28346.801,6.00,6,0.100,185061.000,0.200,37402.000,0.300,3478.000,0.500,821.000,1.000,94.000,5.000,0
"03/09/08","20:03:40",274194.000,"cc",28321.973,6.00,6,0.100,220075.000,0.200,48853.000,0.300,4299.000,0.500,846.000,1.000,121.000,5.000,0
"03/09/08","20:03:46",231095.000,"cc",28375.604,6.00,6,0.100,187718.000,0.200,39185.000,0.300,3360.000,0.500,722.000,1.000,110.000,5.000,0
"03/09/08","20:03:52",129884.000,"cc",28250.897,6.00,6,0.100,105984.000,0.200,21034.000,0.300,2177.000,0.500,615.000,1.000,74.000,5.000,0
"03/09/08","20:03:58",176391.000,"cc",28312.416,6.00,6,0.100,144190.000,0.200,28573.000,0.300,2820.000,0.500,722.000,1.000,86.000,5.000,0
"03/09/08","20:04:04",160185.000,"cc",28291.781,6.00,6,0.100,129377.000,0.200,27578.000,0.300,2598.000,0.500,581.000,1.000,51.000,5.000,0
"03/09/08","20:04:10",191618.000,"cc",28382.369,6.00,6,0.100,156657.000,0.200,31489.000,0.300,2849.000,0.500,558.000,1.000,65.000,5.000,0
"03/09/08","20:04:16",259087.000,"cc",28314.551,6.00,6,0.100,208573.000,0.200,45456.000,0.300,4198.000,0.500,757.000,1.000,103.000,5.000,0
"03/09/08","20:04:22",205121.000,"cc",28321.074,6.00,6,0.100,167265.000,0.200,33804.000,0.300,3207.000,0.500,736.000,1.000,109.000,5.000,0
"03/09/08","20:04:28",230195.000,"cc",28272.273,6.00,6,0.100,187146.000,0.200,38518.000,0.300,3618.000,0.500,788.000,1.000,125.000,5.000,0
"03/09/08","20:04:34",198029.000,"cc",28327.650,6.00,6,0.100,161126.000,0.200,33110.000,0.300,3008.000,0.500,711.000,1.000,74.000,5.000,0
"03/09/08","20:04:40",114430.000,"cc",28325.332,6.00,6,0.100,93239.000,0.200,18576.000,0.300,1937.000,0.500,592.000,1.000,86.000,5.000,0
"03/09/08","20:04:46",189139.000,"cc",28349.447,6.00,6,0.100,154895.000,0.200,30605.000,0.300,2831.000,0.500,712.000,1.000,96.000,5.000,0
"03/09/08","20:04:52",181406.000,"cc",28336.738,6.00,6,0.100,148200.000,0.200,29659.000,0.300,2760.000,0.500,695.000,1.000,92.000,5.000,0
"03/09/08","20:04:58",201751.000,"cc",28254.313,6.00,6,0.100,165035.000,0.200,32814.000,0.300,3087.000,0.500,712.000,1.000,103.000,5.000,0
"03/09/08","20:05:04",254060.000,"cc",28314.684,6.00,6,0.100,206973.000,0.200,42504.000,0.300,3620.000,0.500,842.000,1.000,121.000,5.000,0
"03/09/08","20:05:10",148510.000,"cc",28363.604,6.00,6,0.100,121586.000,0.200,23985.000,0.300,2202.000,0.500,646.000,1.000,91.000,5.000,0
"03/09/08","20:05:16",322164.000,"cc",28317.992,6.00,6,0.100,260091.000,0.200,56557.000,0.300,4386.000,0.500,935.000,1.000,195.000,5.000,0
"03/09/08","20:05:22",146440.000,"cc",28267.035,6.00,6,0.100,120815.000,0.200,22811.000,0.300,2124.000,0.500,615.000,1.000,75.000,5.000,0
"03/09/08","20:05:28",210254.000,"cc",28301.065,6.00,6,0.100,172010.000,0.200,34772.000,0.300,2788.000,0.500,611.000,1.000,73.000,5.000,0
"03/09/08","20:05:34",148040.000,"cc",28355.078,6.00,6,0.100,122407.000,0.200,23031.000,0.300,1994.000,0.500,542.000,1.000,66.000,5.000,0
"03/09/08","20:05:40",154397.000,"cc",28306.266,6.00,6,0.100,126836.000,0.200,24464.000,0.300,2344.000,0.500,656.000,1.000,97.000,5.000,0
"03/09/08","20:05:46",123416.000,"cc",28340.135,6.00,6,0.100,99950.000,0.200,20083.000,0.300,2486.000,0.500,809.000,1.000,88.000,5.000,0
"03/09/08","20:05:52",212080.000,"cc",28280.457,6.00,6,0.100,173117.000,0.200,34609.000,0.300,3203.000,0.500,972.000,1.000,179.000,5.000,0
"03/09/08","20:05:58",232558.000,"cc",28299.912,6.00,6,0.100,190214.000,0.200,37666.000,0.300,3566.000,0.500,970.000,1.000,142.000,5.000,0
"03/09/08","20:06:04",308874.000,"cc",28314.453,6.00,6,0.100,249640.000,0.200,53516.000,0.300,4575.000,0.500,986.000,1.000,157.000,5.000,0
"03/09/08","20:06:10",227505.000,"cc",28316.299,6.00,6,0.100,184288.000,0.200,38753.000,0.300,3563.000,0.500,785.000,1.000,116.000,5.000,0
"03/09/08","20:06:16",216265.000,"cc",28286.688,6.00,6,0.100,175857.000,0.200,35524.000,0.300,3898.000,0.500,880.000,1.000,106.000,5.000,0
"03/09/08","20:06:22",223660.000,"cc",28319.088,6.00,6,0.100,180179.000,0.200,38642.000,0.300,3765.000,0.500,938.000,1.000,136.000,5.000,0
"03/09/08","20:06:28",251780.000,"cc",28376.654,6.00,6,0.100,201444.000,0.200,44213.000,0.300,4672.000,0.500,1241.000,1.000,210.000,5.000,0
"03/09/08","20:06:34",166969.000,"cc",28230.078,6.00,6,0.100,135214.000,0.200,27744.000,0.300,2986.000,0.500,887.000,1.000,138.000,5.000,0
"03/09/08","20:06:40",152330.000,"cc",28272.537,6.00,6,0.100,123309.000,0.200,24947.000,0.300,3109.000,0.500,836.000,1.000,129.000,5.000,0
"03/09/08","20:06:46",116356.000,"cc",28319.408,6.00,6,0.100,93864.000,0.200,19063.000,0.300,2502.000,0.500,804.000,1.000,123.000,5.000,0
"03/09/08","20:06:52",121270.000,"cc",28282.459,6.00,6,0.100,97994.000,0.200,20076.000,0.300,2347.000,0.500,749.000,1.000,104.000,5.000,0
"03/09/08","20:06:58",156022.000,"cc",28272.402,6.00,6,0.100,127090.000,0.200,25242.000,0.300,2792.000,0.500,797.000,1.000,101.000,5.000,0
"03/09/08","20:07:04",159638.000,"cc",28351.287,6.00,6,0.100,130850.000,0.200,25414.000,0.300,2600.000,0.500,702.000,1.000,72.000,5.000,0
"03/09/08","20:07:10",223595.000,"cc",28346.377,6.00,6,0.100,182285.000,0.200,37024.000,0.300,3475.000,0.500,725.000,1.000,86.000,5.000,0
"03/09/08","20:07:16",211434.000,"cc",28369.871,6.00,6,0.100,172552.000,0.200,34959.000,0.300,3244.000,0.500,607.000,1.000,72.000,5.000,0
"03/09/08","20:07:22",171941.000,"cc",28291.258,6.00,6,0.100,140041.000,0.200,28289.000,0.300,2822.000,0.500,703.000,1.000,86.000,5.000,0
"03/09/08","20:07:28",246562.000,"cc",28275.738,6.00,6,0.100,200474.000,0.200,41293.000,0.300,3809.000,0.500,869.000,1.000,117.000,5.000,0
"03/09/08","20:07:34",217673.000,"cc",28259.268,6.00,6,0.100,176165.000,0.200,37225.000,0.300,3469.000,0.500,720.000,1.000,94.000,5.000,0
"03/09/08","20:07:40",154113.000,"cc",28407.606,6.00,6,0.100,125193.000,0.200,25248.000,0.300,2772.000,0.500,774.000,1.000,126.000,5.000,0
"03/09/08","20:07:46",165146.000,"cc",28320.674,6.00,6,0.100,132203.000,0.200,28454.000,0.300,3353.000,0.500,950.000,1.000,186.000,5.000,0
"03/09/08","20:07:52",165490.000,"cc",28278.516,6.00,6,0.100,133273.000,0.200,27625.000,0.300,3343.000,0.500,1077.000,1.000,172.000,5.000,0
"03/09/08","20:07:58",229143.000,"cc",28323.695,6.00,6,0.100,184894.000,0.200,38351.000,0.300,4415.000,0.500,1221.000,1.000,262.000,5.000,0
"03/09/08","20:08:04",176432.000,"cc",28295.914,6.00,6,0.100,142386.000,0.200,29439.000,0.300,3421.000,0.500,1022.000,1.000,164.000,5.000,0
"03/09/08","20:08:10",165662.000,"cc",28313.523,6.00,6,0.100,133675.000,0.200,27596.000,0.300,3147.000,0.500,1043.000,1.000,201.000,5.000,0
"03/09/08","20:08:16",219333.000,"cc",28290.375,6.00,6,0.100,177929.000,0.200,36393.000,0.300,3758.000,0.500,1062.000,1.000,191.000,5.000,0
"03/09/08","20:08:22",190500.000,"cc",28359.502,6.00,6,0.100,155224.000,0.200,31288.000,0.300,3129.000,0.500,735.000,1.000,124.000,5.000,0
"03/09/08","20:08:28",170521.000,"cc",28311.725,6.00,6,0.100,137640.000,0.200,29062.000,0.300,2955.000,0.500,757.000,1.000,107.000,5.000,0
"03/09/08","20:08:34",241744.000,"cc",28323.662,6.00,6,0.100,195402.000,0.200,41422.000,0.300,3842.000,0.500,940.000,1.000,138.000,5.000,0
"03/09/08","20:08:40",155807.000,"cc",28340.791,6.00,6,0.100,127012.000,0.200,25194.000,0.300,2673.000,0.500,810.000,1.000,118.000,5.000,0
"03/09/08","20:08:46",163632.000,"cc",28304.350,6.00,6,0.100,133045.000,0.200,26855.000,0.300,2797.000,0.500,823.000,1.000,112.000,5.000,0
"03/09/08","20:08:52",167361.000,"cc",28260.039,6.00,6,0.100,135411.000,0.200,28197.000,0.300,2812.000,0.500,839.000,1.000,102.000,5.000,0
"03/09/08","20:08:58",223604.000,"cc",28298.789,6.00,6,0.100,181610.000,0.200,37519.000,0.300,3504.000,0.500,848.000,1.000,123.000,5.000,0
"03/09/08","20:09:04",118452.000,"cc",28382.471,6.00,6,0.100,96652.000,0.200,18903.000,0.300,2121.000,0.500,688.000,1.000,88.000,5.000,0
"03/09/08","20:09:10",121581.000,"cc",28320.775,6.00,6,0.100,99660.000,0.200,19135.000,0.300,2068.000,0.500,645.000,1.000,73.000,5.000,0
"03/09/08","20:09:16",157940.000,"cc",28319.998,6.00,6,0.100,129487.000,0.200,25086.000,0.300,2577.000,0.500,704.000,1.000,86.000,5.000,0
"03/09/08","20:09:22",218295.000,"cc",28310.709,6.00,6,0.100,177695.000,0.200,36665.000,0.300,3219.000,0.500,641.000,1.000,75.000,5.000,0
"03/09/08","20:09:28",194133.000,"cc",28321.217,6.00,6,0.100,158645.000,0.200,31762.000,0.300,2913.000,0.500,709.000,1.000,104.000,5.000,0
"03/09/08","20:09:34",172392.000,"cc",28313.422,6.00,6,0.100,140765.000,0.200,28025.000,0.300,2718.000,0.500,769.000,1.000,115.000,5.000,0
"03/09/08","20:09:40",202899.000,"cc",28343.658,6.00,6,0.100,166203.000,0.200,32502.000,0.300,3203.000,0.500,889.000,1.000,102.000,5.000,0
"03/09/08","20:09:46",194253.000,"cc",28306.723,6.00,6,0.100,158059.000,0.200,32232.000,0.300,3017.000,0.500,825.000,1.000,120.000,5.000,0
"03/09/08","20:09:52",267134.000,"cc",28319.803,6.00,6,0.100,217301.000,0.200,44743.000,0.300,3935.000,0.500,1015.000,1.000,140.000,5.000,0
"03/09/08","20:09:58",301474.000,"cc",28372.672,6.00,6,0.100,244182.000,0.200,51154.000,0.300,4649.000,0.500,1260.000,1.000,229.000,5.000,0
"03/09/08","20:10:04",187026.000,"cc",28287.352,6.00,6,0.100,153040.000,0.200,29719.000,0.300,3038.000,0.500,1046.000,1.000,183.000,5.000,0
"03/09/08","20:10:10",206575.000,"cc",28255.541,6.00,6,0.100,169183.000,0.200,32907.000,0.300,3224.000,0.500,1086.000,1.000,175.000,5.000,0
"03/09/08","20:10:16",192952.000,"cc",28312.260,6.00,6,0.100,157786.000,0.200,30913.000,0.300,3068.000,0.500,1030.000,1.000,155.000,5.000,0
"03/09/08","20:10:22",211244.000,"cc",28343.395,6.00,6,0.100,172883.000,0.200,33687.000,0.300,3428.000,0.500,1072.000,1.000,174.000,5.000,0
"03/09/08","20:10:28",158686.000,"cc",28315.209,6.00,6,0.100,129503.000,0.200,25154.000,0.300,2876.000,0.500,1020.000,1.000,133.000,5.000,0
"03/09/08","20:10:34",212164.000,"cc",28316.490,6.00,6,0.100,172667.000,0.200,34799.000,0.300,3494.000,0.500,1056.000,1.000,148.000,5.000,0
"03/09/08","20:10:40",215594.000,"cc",28297.207,6.00,6,0.100,174722.000,0.200,36426.000,0.300,3426.000,0.500,895.000,1.000,125.000,5.000,0
"03/09/08","20:10:46",166684.000,"cc",28268.838,6.00,6,0.100,136288.000,0.200,26648.000,0.300,2720.000,0.500,893.000,1.000,135.000,5.000,0
"03/09/08","20:10:52",251036.000,"cc",28331.016,6.00,6,0.100,203424.000,0.200,42508.000,0.300,3949.000,0.500,995.000,1.000,160.000,5.000,0
"03/09/08","20:10:58",196362.000,"cc",28335.848,6.00,6,0.100,161379.000,0.200,31003.000,0.300,2974.000,0.500,872.000,1.000,134.000,5.000,0
"03/09/08","20:11:04",239500.000,"cc",28316.748,6.00,6,0.100,195819.000,0.200,39135.000,0.300,3524.000,0.500,881.000,1.000,141.000,5.000,0
"03/09/08","20:11:10",224694.000,"cc",28301.029,6.00,6,0.100,183457.000,0.200,36754.000,0.300,3427.000,0.500,937.000,1.000,119.000,5.000,0
"03/09/08","20:11:16",197746.000,"cc",28344.850,6.00,6,0.100,162168.000,0.200,31712.000,0.300,2965.000,0.500,811.000,1.000,90.000,5.000,0
"03/09/08","20:11:22",128277.000,"cc",28312.148,6.00,6,0.100,104909.000,0.200,20362.000,0.300,2227.000,0.500,700.000,1.000,79.000,5.000,0
"03/09/08","20:11:28",129666.000,"cc",28330.055,6.00,6,0.100,106004.000,0.200,20354.000,0.300,2380.000,0.500,830.000,1.000,98.000,5.000,0
"03/09/08","20:11:34",185491.000,"cc",28360.094,6.00,6,0.100,151291.000,0.200,29953.000,0.300,3047.000,0.500,1004.000,1.000,196.000,5.000,0
"03/09/08","20:11:40",175805.000,"cc",28236.791,6.00,6,0.100,142218.000,0.200,29576.000,0.300,3142.000,0.500,767.000,1.000,102.000,5.000,0
"03/09/08","20:11:46",294312.000,"cc",28386.953,6.00,6,0.100,235835.000,0.200,52189.000,0.300,4934.000,0.500,1119.000,1.000,235.000,5.000,0
"03/09/08","20:11:52",240728.000,"cc",28315.828,6.00,6,0.100,195874.000,0.200,39455.000,0.300,4038.000,0.500,1148.000,1.000,213.000,5.000,0
"03/09/08","20:11:58",159816.000,"cc",28317.471,6.00,6,0.100,131235.000,0.200,24781.000,0.300,2773.000,0.500,895.000,1.000,132.000,5.000,0
"03/09/08","20:12:04",271799.000,"cc",28329.039,6.00,6,0.100,220193.000,0.200,45966.000,0.300,4366.000,0.500,1112.000,1.000,162.000,5.000,0
"03/09/08","20:12:10",273959.000,"cc",28272.881,6.00,6,0.100,223059.000,0.200,44754.000,0.300,4523.000,0.500,1378.000,1.000,245.000,5.000,0
"03/09/08","20:12:16",217598.000,"cc",28345.938,6.00,6,0.100,177522.000,0.200,35115.000,0.300,3781.000,0.500,1029.000,1.000,151.000,5.000,0
"03/09/08","20:12:22",222532.000,"cc",28316.039,6.00,6,0.100,181642.000,0.200,36204.000,0.300,3550.000,0.500,990.000,1.000,146.000,5.000,0
"03/09/08","20:12:28",270933.000,"cc",28334.938,6.00,6,0.100,220959.000,0.200,44055.000,0.300,4532.000,0.500,1204.000,1.000,183.000,5.000,0
"03/09/08","20:12:34",318843.000,"cc",28313.055,6.00,6,0.100,256331.000,0.200,56182.000,0.300,5102.000,0.500,1066.000,1.000,162.000,5.000,0
"03/09/08","20:12:40",326941.000,"cc",28282.947,6.00,6,0.100,262934.000,0.200,57293.000,0.300,5212.000,0.500,1309.000,1.000,193.000,5.000,0
"03/09/08","20:12:46",236478.000,"cc",28313.426,6.00,6,0.100,192408.000,0.200,39258.000,0.300,3714.000,0.500,962.000,1.000,135.000,5.000,1.000
"03/09/08","20:12:52",337736.000,"cc",28281.078,6.00,6,0.100,271137.000,0.200,59748.000,0.300,5445.000,0.500,1205.000,1.000,201.000,5.000,0
"03/09/08","20:12:58",252172.000,"cc",28257.127,6.00,6,0.100,205572.000,0.200,41142.000,0.300,4111.000,0.500,1163.000,1.000,184.000,5.000,0
"03/09/08","20:13:04",193556.000,"cc",28354.516,6.00,6,0.100,157632.000,0.200,31239.000,0.300,3361.000,0.500,1162.000,1.000,162.000,5.000,0
"03/09/08","20:13:10",220498.000,"cc",28355.125,6.00,6,0.100,180200.000,0.200,35801.000,0.300,3385.000,0.500,977.000,1.000,135.000,5.000,0
"03/09/08","20:13:16",233164.000,"cc",28343.600,6.00,6,0.100,190900.000,0.200,37474.000,0.300,3617.000,0.500,1022.000,1.000,151.000,5.000,0
"03/09/08","20:13:22",214196.000,"cc",28299.869,6.00,6,0.100,175681.000,0.200,34106.000,0.300,3307.000,0.500,949.000,1.000,153.000,5.000,0
"03/09/08","20:13:28",96536.000,"cc",28308.857,6.00,6,0.100,78324.000,0.200,15489.000,0.300,1886.000,0.500,745.000,1.000,92.000,5.000,0
"03/09/08","20:13:34",115980.000,"cc",28326.547,6.00,6,0.100,94786.000,0.200,18242.000,0.300,2103.000,0.500,750.000,1.000,99.000,5.000,0
"03/09/08","20:13:40",161047.000,"cc",28318.936,6.00,6,0.100,132441.000,0.200,25079.000,0.300,2466.000,0.500,939.000,1.000,122.000,5.000,0
"03/09/08","20:13:46",174884.000,"cc",28321.195,6.00,6,0.100,144040.000,0.200,27138.000,0.300,2652.000,0.500,939.000,1.000,115.000,5.000,0
"03/09/08","20:13:52",145280.000,"cc",28296.469,6.00,6,0.100,119773.000,0.200,22140.000,0.300,2334.000,0.500,912.000,1.000,121.000,5.000,0
"03/09/08","20:13:58",211576.000,"cc",28316.410,6.00,6,0.100,173036.000,0.200,34051.000,0.300,3350.000,0.500,968.000,1.000,171.000,5.000,0
"03/09/08","20:14:04",130312.000,"cc",28275.389,6.00,6,0.100,107097.000,0.200,19978.000,0.300,2291.000,0.500,830.000,1.000,116.000,5.000,0
"03/09/08","20:14:10",206269.000,"cc",28349.291,6.00,6,0.100,169068.000,0.200,32731.000,0.300,3201.000,0.500,1104.000,1.000,165.000,5.000,0
"03/09/08","20:14:16",245084.000,"cc",28341.949,6.00,6,0.100,201166.000,0.200,39234.000,0.300,3482.000,0.500,1036.000,1.000,166.000,5.000,0
"03/09/08","20:14:22",199406.000,"cc",28305.482,6.00,6,0.100,164128.000,0.200,31078.000,0.300,3085.000,0.500,989.000,1.000,126.000,5.000,0
"03/09/08","20:14:28",231957.000,"cc",28349.154,6.00,6,0.100,190734.000,0.200,36333.000,0.300,3498.000,0.500,1209.000,1.000,183.000,5.000,0
"03/09/08","20:14:34",259112.000,"cc",28303.631,6.00,6,0.100,210535.000,0.200,43258.000,0.300,4010.000,0.500,1131.000,1.000,178.000,5.000,0
"03/09/08","20:14:40",213155.000,"cc",28350.922,6.00,6,0.100,175393.000,0.200,33190.000,0.300,3299.000,0.500,1096.000,1.000,177.000,5.000,0
"03/09/08","20:14:46",245327.000,"cc",28301.834,6.00,6,0.100,198547.000,0.200,41697.000,0.300,3881.000,0.500,1041.000,1.000,161.000,5.000,0
"03/09/08","20:14:52",225270.000,"cc",28256.383,6.00,6,0.100,183168.000,0.200,37541.000,0.300,3517.000,0.500,914.000,1.000,130.000,5.000,0
"03/09/08","20:14:58",232871.000,"cc",28212.225,6.00,6,0.100,189657.000,0.200,38546.000,0.300,3603.000,0.500,944.000,1.000,121.000,5.000,0
"03/09/08","20:15:04",241938.000,"cc",28360.145,6.00,6,0.100,197905.000,0.200,38649.000,0.300,3985.000,0.500,1211.000,1.000,188.000,5.000,0
"03/09/08","20:15:10",223377.000,"cc",28334.018,6.00,6,0.100,182210.000,0.200,36010.000,0.300,3781.000,0.500,1184.000,1.000,192.000,5.000,0
"03/09/08","20:15:16",211034.000,"cc",28321.160,6.00,6,0.100,172428.000,0.200,33876.000,0.300,3494.000,0.500,1064.000,1.000,172.000,5.000,0
"03/09/08","20:15:22",219753.000,"cc",28259.596,6.00,6,0.100,179986.000,0.200,34707.000,0.300,3586.000,0.500,1251.000,1.000,223.000,5.000,0
"03/09/08","20:15:28",149874.000,"cc",28416.041,6.00,6,0.100,123375.000,0.200,22515.000,0.300,2715.000,0.500,1107.000,1.000,162.000,5.000,0
"03/09/08","20:15:34",183420.000,"cc",28320.580,6.00,6,0.100,149911.000,0.200,28596.000,0.300,3362.000,0.500,1332.000,1.000,219.000,5.000,0
"03/09/08","20:15:40",264937.000,"cc",28306.326,6.00,6,0.100,216690.000,0.200,42331.000,0.300,4293.000,0.500,1375.000,1.000,248.000,5.000,0
"03/09/08","20:15:46",328305.000,"cc",28324.852,6.00,6,0.100,263626.000,0.200,57037.000,0.300,5720.000,0.500,1632.000,1.000,290.000,5.000,0
"03/09/08","20:15:52",201171.000,"cc",28360.135,6.00,6,0.100,163535.000,0.200,32895.000,0.300,3528.000,0.500,1069.000,1.000,144.000,5.000,0
"03/09/08","20:15:58",224110.000,"cc",28340.494,6.00,6,0.100,183778.000,0.200,35303.000,0.300,3730.000,0.500,1120.000,1.000,179.000,5.000,0
"03/09/08","20:16:04",194026.000,"cc",28314.697,6.00,6,0.100,159560.000,0.200,29992.000,0.300,3206.000,0.500,1104.000,1.000,164.000,5.000,0
"03/09/08","20:16:10",209471.000,"cc",28252.305,6.00,6,0.100,171967.000,0.200,32790.000,0.300,3345.000,0.500,1178.000,1.000,191.000,5.000,0